This is the latest recevied weather packets stored in our database for station/object DJ9MA-10. If no packets are shown the sender has not sent any weather packets the latest 10 day(s).
| Time | Temp. | Humidity | Pressure | Rain* | Wind** | Luminosity | Snow |
|---|---|---|---|---|---|---|---|
| 1777444125 | 18.33° C | 54% | 968.4 hPa | - | - | - | - |
| 1777443225 | 16.11° C | 65% | 968.5 hPa | - | - | - | - |
| 1777442325 | 15° C | 70% | 968.3 hPa | - | - | - | - |
| 1777441425 | 14.44° C | 73% | 968.2 hPa | - | - | - | - |
| 1777440525 | 16.67° C | 67% | 968 hPa | - | - | - | - |
| 1777439625 | 16.67° C | 66% | 967.9 hPa | - | - | - | - |
| 1777438725 | 16.11° C | 63% | 967.6 hPa | - | - | - | - |
| 1777437825 | 15.56° C | 65% | 967.5 hPa | - | - | - | - |
| 1777436925 | 15.56° C | 66% | 967.3 hPa | - | - | - | - |
| 1777436025 | 15.56° C | 66% | 967.2 hPa | - | - | - | - |
| 1777435125 | 15.56° C | 65% | 967 hPa | - | - | - | - |
| 1777434225 | 16.11° C | 62% | 966.8 hPa | - | - | - | - |
| 1777433325 | 16.11° C | 61% | 966.8 hPa | - | - | - | - |
| 1777432425 | 16.11° C | 59% | 966.7 hPa | - | - | - | - |
| 1777431525 | 16.11° C | 60% | 966.7 hPa | - | - | - | - |
| 1777430624 | 16.11° C | 59% | 966.6 hPa | - | - | - | - |
| 1777429724 | 16.67° C | 59% | 966.5 hPa | - | - | - | - |
| 1777428824 | 16.67° C | 58% | 966.5 hPa | - | - | - | - |
| 1777427924 | 16.67° C | 57% | 966.5 hPa | - | - | - | - |
| 1777427024 | 16.67° C | 57% | 966.4 hPa | - | - | - | - |
| 1777426124 | 17.22° C | 55% | 966.3 hPa | - | - | - | - |
| 1777425224 | 17.22° C | 55% | 966.4 hPa | - | - | - | - |
| 1777424324 | 17.22° C | 54% | 966.4 hPa | - | - | - | - |
| 1777423424 | 17.22° C | 54% | 966.4 hPa | - | - | - | - |
| 1777422524 | 17.78° C | 54% | 966.4 hPa | - | - | - | - |
* Rain since midnight (hover to see other rain measurements)
** Current wind speed in m/s (hover to see current wind gust speed)